Location: Newark
(44.2003°N, 3.2583°E)
Time: 16:19:23
(UTC+00:00)

SR - Pass Details

Date: 24 October 2019
Orbit: 573 x 882 km, 66.7° (Epoch: 21 November)

Event Time Altitude Azimuth Distance (km) Brightness Sun altitude
Rises 03:45:19 0° 334° (NNW) 3,426 - -27.0°
Exits shadow 03:46:44 - 341° (NNW) 3,004 ? -26.7°
Reaches altitude 10° 03:48:34 10° 352° (N) 2,519 ? -26.4°
Maximum altitude 03:52:38 19° 36° (NE) 1,984 ? -25.7°
Drops below altitude 10° 03:56:43 10° 80° (E) 2,542 ? -25.0°
Sets 04:00:01 0° 98° (E) 3,468 ? -24.4°
